Temp
-15 -16 -16 -16 -15 -16 -15 -16 -16 -15 -15 -15 -15 -14 -14 -14 -14 -13 -13 -13 -13 -13 -13 -13 -13 -12 -12 -12 -12 -12 -12 -12 -12 -12 -12 -12 -12 -13 -12 -13 -12 -12 -13
-15 -16 -16 -16 -16 -15 -16 -16 -16 -16 -16 -15 -15 -15 -15 -15 -15 -14 -14 -13 -13 -13 -13 -13 -13 -13 -12 -13 -13 -13 -12 -12 -12 -12 -12 -12 -13 -13 -13 -13 -13 -13 -13
-16 -15 -16 -16 -16 -16 -16 -16 -16 -16 -16 -15 -16 -15 -15 -15 -15 -14 -14 -13 -13 -13 -13 -14 -13 -13 -13 -13 -13 -13 -13 -12 -12 -12 -12 -12 -13 -13 -13 -13 -13 -13 -13
-19 -17 -16 -17 -16 -16 -16 -16 -16 -16 -16 -16 -16 -15 -15 -15 -14 -15 -15 -14 -15 -14 -14 -14 -14 -13 -13 -13 -14 -13 -13 -13 -13 -12 -13 -13 -12 -13 -13 -13 -14 -13 -13
-21 -19 -17 -17 -17 -17 -16 -16 -16 -17 -16 -16 -16 -15 -15 -15 -15 -15 -15 -15 -15 -14 -14 -14 -14 -14 -14 -14 -14 -14 -13 -13 -13 -13 -13 -13 -13 -13 -13 -14 -14 -14 -14
-22 -21 -20 -17 -17 -17 -17 -16 -16 -16 -16 -15 -15 -14 -15 -15 -15 -15 -15 -15 -15 -14 -14 -14 -14 -14 -14 -14 -14 -14 -13 -13 -13 -13 -13 -13 -13 -13 -13 -14 -14 -14 -14
-22 -20 -20 -17 -17 -17 -16 -16 -16 -16 -15 -16 -15 -15 -16 -15 -15 -16 -15 -16 -15 -15 -14 -14 -14 -14 -14 -14 -14 -14 -14 -14 -13 -14 -13 -14 -13 -13 -13 -13 -14 -14 -14
-21 -21 -19 -18 -17 -17 -16 -16 -16 -17 -16 -16 -16 -16 -16 -15 -15 -15 -15 -16 -15 -14 -14 -14 -14 -14 -14 -14 -14 -14 -14 -14 -14 -14 -14 -14 -14 -13 -13 -13 -14 -14 -14
-20 -19 -18 -18 -17 -17 -17 -17 -17 -17 -17 -16 -16 -15 -15 -14 -14 -15 -15 -16 -15 -14 -14 -14 -14 -14 -14 -14 -14 -14 -14 -14 -14 -14 -14 -14 -14 -14 -14 -14 -14 -14 -13
-19 -18 -18 -17 -17 -17 -17 -17 -16 -16 -15 -15 -14 -15 -15 -14 -14 -15 -15 -15 -15 -14 -14 -14 -14 -14 -14 -14 -14 -14 -14 -14 -14 -14 -14 -14 -14 -14 -14 -14 -14 -14 -14
-19 -18 -18 -17 -17 -17 -17 -16 -16 -15 -14 -14 -14 -14 -14 -14 -14 -14 -14 -14 -14 -14 -14 -14 -14 -14 -14 -14 -14 -14 -14 -14 -14 -14 -14 -14 -14 -14 -14 -14 -14 -13 -14
-18 -18 -18 -18 -18 -18 -17 -16 -16 -15 -14 -15 -14 -14 -14 -14 -14 -13 -14 -13 -14 -14 -14 -14 -14 -14 -14 -14 -14 -14 -14 -14 -14 -14 -14 -14 -14 -14 -14 -14 -14 -13 -14
-18 -18 -17 -16 -16 -16 -16 -16 -15 -15 -15 -15 -15 -14 -14 -14 -14 -14 -14 -14 -14 -14 -14 -14 -14 -14 -14 -14 -14 -14 -14 -14 -14 -14 -14 -15 -14 -14 -14 -14 -14 -14 -14
-18 -17 -17 -16 -16 -16 -17 -16 -16 -15 -16 -16 -15 -15 -15 -14 -14 -14 -14 -14 -14 -14 -14 -14 -14 -14 -14 -14 -14 -14 -14 -14 -14 -15 -14 -15 -15 -15 -15 -14 -13 -14 -14
-19 -18 -17 -16 -16 -16 -16 -16 -16 -16 -16 -16 -16 -16 -16 -16 -16 -15 -16 -15 -16 -15 -15 -14 -14 -14 -15 -14 -14 -14 -14 -14 -14 -15 -14 -15 -15 -15 -14 -14 -14 -14 -14
-19 -18 -17 -17 -17 -16 -16 -16 -16 -16 -16 -16 -17 -16 -17 -17 -17 -16 -16 -15 -15 -15 -15 -14 -14 -14 -15 -15 -14 -14 -14 -14 -14 -15 -15 -15 -15 -15 -14 -14 -14 -14 -14
-19 -19 -19 -17 -17 -17 -17 -17 -17 -17 -17 -17 -17 -17 -17 -17 -16 -16 -16 -15 -15 -15 -14 -14 -14 -15 -15 -14 -14 -14 -14 -14 -15 -15 -15 -15 -15 -15 -15 -14 -14 -14 -14
-19 -19 -19 -19 -18 -17 -17 -17 -17 -17 -17 -17 -18 -17 -17 -16 -16 -16 -15 -15 -15 -15 -14 -15 -15 -15 -15 -14 -15 -15 -15 -15 -15 -15 -15 -15 -15 -15 -15 -15 -14 -14 -14
-20 -20 -20 -19 -19 -19 -18 -17 -17 -17 -17 -17 -18 -17 -16 -16 -16 -16 -15 -15 -15 -15 -15 -15 -15 -14 -14 -14 -15 -15 -15 -15 -15 -15 -15 -15 -15 -15 -15 -15 -14 -14 -14
-20 -20 -20 -20 -20 -20 -19 -18 -18 -18 -18 -18 -18 -18 -17 -16 -16 -16 -15 -15 -15 -15 -15 -15 -14 -15 -15 -14 -15 -14 -15 -15 -16 -16 -15 -15 -16 -16 -15 -15 -15 -15 -15
-20 -20 -20 -20 -19 -19 -19 -19 -19 -19 -18 -17 -17 -17 -16 -16 -16 -16 -16 -16 -15 -15 -15 -15 -15 -15 -15 -15 -15 -15 -15 -16 -16 -16 -16 -16 -16 -16 -15 -15 -15 -15 -15
-21 -21 -20 -19 -19 -19 -19 -19 -19 -19 -19 -18 -18 -17 -17 -16 -16 -16 -16 -16 -16 -15 -15 -15 -15 -15 -15 -15 -15 -15 -16 -16 -16 -15 -15 -16 -16 -16 -16 -15 -15 -15 -16
-21 -21 -21 -20 -19 -19 -19 -19 -19 -19 -18 -18 -18 -18 -17 -17 -17 -16 -16 -16 -16 -15 -15 -15 -15 -15 -15 -15 -15 -15 -16 -16 -16 -15 -15 -15 -15 -16 -16 -16 -16 -16 -16
-21 -21 -21 -21 -20 -20 -20 -19 -19 -18 -18 -18 -18 -18 -17 -17 -17 -17 -16 -16 -16 -16 -16 -16 -15 -15 -15 -15 -15 -16 -17 -16 -16 -16 -16 -15 -16 -16 -16 -16 -16 -16 -17
-22 -21 -21 -21 -21 -21 -20 -20 -19 -19 -19 -19 -18 -18 -18 -17 -17 -17 -17 -16 -16 -16 -16 -16 -16 -16 -16 -16 -16 -16 -16 -16 -16 -16 -16 -16 -16 -16 -16 -16 -17 -17 -17
-22 -22 -21 -21 -21 -21 -21 -21 -21 -20 -20 -20 -19 -19 -19 -18 -18 -18 -17 -17 -17 -17 -17 -17 -17 -17 -17 -17 -17 -17 -16 -16 -16 -16 -17 -17 -17 -17 -17 -17 -17 -17 -17
Height
5658 5660 5668 5674 5676 5682 5687 5693 5700 5710 5716 5722 5731 5738 5744 5748 5750 5752 5756 5758 5761 5765 5767 5769 5769 5770 5771 5772 5773 5773 5774 5774 5775 5775 5774 5775 5776 5775 5776 5778 5779 5778 5781
5631 5634 5641 5649 5657 5664 5670 5677 5683 5692 5703 5710 5720 5727 5734 5738 5742 5744 5748 5750 5754 5758 5760 5763 5764 5765 5766 5767 5768 5769 5770 5770 5771 5772 5771 5771 5772 5772 5771 5773 5774 5774 5776
5591 5603 5614 5626 5637 5645 5653 5662 5670 5677 5688 5699 5705 5712 5720 5725 5732 5737 5741 5745 5747 5750 5753 5756 5758 5759 5760 5762 5763 5764 5765 5766 5766 5767 5767 5767 5767 5765 5767 5768 5769 5770 5771
5554 5565 5586 5603 5619 5631 5639 5647 5656 5663 5674 5682 5690 5701 5709 5718 5727 5731 5736 5738 5738 5742 5746 5748 5752 5754 5755 5756 5757 5758 5760 5761 5760 5761 5761 5762 5762 5761 5762 5763 5764 5765 5765
5522 5532 5551 5579 5599 5613 5621 5631 5639 5649 5658 5669 5679 5688 5700 5708 5716 5720 5725 5728 5730 5733 5738 5741 5744 5747 5749 5750 5751 5752 5754 5755 5755 5755 5755 5756 5756 5755 5756 5756 5757 5758 5759
5514 5515 5526 5553 5578 5593 5604 5616 5624 5635 5645 5662 5671 5679 5691 5697 5703 5711 5715 5719 5722 5725 5730 5734 5736 5739 5742 5744 5744 5745 5747 5749 5750 5750 5750 5750 5750 5750 5750 5750 5750 5751 5753
5517 5516 5521 5542 5566 5580 5597 5606 5619 5628 5637 5650 5659 5668 5677 5684 5692 5698 5704 5710 5714 5716 5722 5724 5728 5731 5734 5737 5738 5739 5741 5743 5744 5745 5744 5744 5744 5743 5744 5743 5744 5744 5746
5524 5523 5530 5548 5567 5581 5593 5602 5610 5618 5626 5639 5649 5659 5663 5674 5681 5686 5693 5699 5701 5707 5711 5715 5720 5723 5726 5729 5731 5732 5734 5736 5737 5738 5738 5737 5737 5737 5736 5736 5736 5737 5738
5531 5532 5540 5554 5567 5578 5587 5593 5600 5608 5618 5629 5640 5647 5655 5664 5670 5676 5681 5685 5693 5699 5704 5707 5711 5714 5717 5720 5722 5724 5726 5727 5728 5729 5730 5730 5731 5730 5730 5729 5729 5728 5728
5538 5539 5547 5555 5565 5573 5580 5582 5590 5601 5611 5619 5628 5638 5648 5652 5657 5661 5668 5677 5683 5689 5693 5696 5700 5704 5707 5710 5713 5715 5717 5719 5720 5721 5722 5722 5722 5722 5722 5721 5721 5721 5720
5545 5547 5551 5555 5559 5567 5571 5575 5583 5593 5600 5611 5620 5627 5635 5642 5648 5654 5659 5665 5672 5677 5682 5685 5690 5694 5697 5701 5704 5706 5709 5711 5712 5713 5714 5715 5714 5714 5714 5713 5713 5713 5712
5546 5548 5548 5550 5554 5560 5566 5571 5579 5583 5595 5604 5612 5620 5627 5634 5641 5645 5651 5653 5659 5666 5670 5674 5679 5684 5688 5691 5694 5697 5700 5702 5704 5705 5705 5706 5705 5705 5705 5704 5704 5704 5704
5543 5543 5545 5548 5552 5558 5563 5568 5573 5582 5592 5600 5607 5612 5618 5626 5632 5635 5638 5641 5647 5656 5662 5664 5669 5674 5678 5682 5685 5688 5691 5692 5694 5696 5697 5697 5697 5697 5695 5694 5694 5694 5693
5544 5544 5545 5544 5553 5558 5563 5568 5574 5582 5585 5591 5597 5601 5608 5614 5619 5623 5627 5632 5641 5648 5653 5657 5660 5662 5668 5672 5676 5678 5681 5682 5685 5686 5687 5687 5688 5687 5686 5684 5684 5683 5683
5544 5544 5545 5545 5553 5553 5561 5566 5573 5578 5582 5588 5593 5599 5604 5608 5612 5616 5622 5627 5633 5639 5644 5647 5650 5652 5657 5662 5665 5668 5670 5673 5675 5677 5677 5678 5678 5677 5676 5674 5673 5672 5670
5547 5546 5546 5547 5550 5554 5558 5563 5569 5576 5581 5586 5590 5595 5600 5605 5609 5614 5619 5623 5629 5633 5636 5638 5642 5646 5649 5652 5656 5658 5661 5664 5666 5667 5667 5667 5667 5667 5665 5663 5662 5660 5658
5550 5547 5547 5547 5549 5553 5558 5563 5568 5573 5577 5582 5586 5590 5595 5600 5604 5607 5612 5616 5621 5624 5627 5629 5632 5636 5640 5644 5646 5649 5652 5654 5655 5657 5657 5657 5657 5656 5655 5653 5651 5649 5644
5554 5552 5550 5549 5549 5550 5554 5560 5565 5570 5574 5578 5581 5585 5589 5593 5597 5600 5604 5609 5612 5616 5619 5621 5619 5627 5631 5634 5636 5638 5641 5643 5645 5646 5646 5647 5647 5646 5645 5643 5642 5639 5632
5556 5554 5553 5552 5552 5552 5551 5555 5561 5566 5569 5573 5576 5581 5584 5588 5590 5593 5597 5600 5604 5607 5611 5612 5616 5618 5621 5625 5628 5628 5631 5632 5634 5635 5636 5637 5638 5638 5635 5634 5632 5629 5624
5552 5555 5553 5553 5553 5552 5552 5553 5558 5562 5565 5568 5571 5576 5580 5583 5585 5588 5590 5593 5596 5599 5603 5605 5607 5609 5612 5615 5616 5617 5620 5622 5624 5625 5626 5627 5628 5628 5626 5625 5624 5622 5620
5547 5548 5550 5553 5555 5553 5551 5551 5556 5559 5563 5566 5569 5572 5575 5578 5580 5582 5585 5587 5589 5592 5595 5597 5599 5602 5603 5604 5606 5608 5610 5611 5613 5614 5616 5617 5618 5618 5616 5616 5615 5615 5615
5543 5544 5546 5548 5551 5550 5550 5550 5552 5554 5558 5562 5564 5566 5569 5571 5574 5576 5578 5580 5582 5584 5587 5589 5591 5593 5594 5595 5597 5599 5599 5601 5602 5604 5606 5607 5607 5608 5606 5607 5607 5606 5607
5539 5540 5542 5542 5543 5545 5547 5547 5549 5551 5555 5557 5559 5562 5563 5566 5568 5570 5572 5573 5574 5576 5578 5580 5581 5582 5584 5585 5587 5589 5589 5591 5592 5594 5595 5596 5597 5597 5596 5596 5596 5597 5599
5536 5537 5539 5538 5539 5541 5543 5544 5545 5548 5550 5553 5555 5556 5558 5559 5561 5562 5564 5566 5567 5569 5570 5571 5572 5572 5573 5576 5577 5578 5580 5580 5581 5583 5583 5585 5586 5585 5586 5586 5586 5587 5588
5531 5532 5534 5534 5534 5535 5536 5539 5540 5542 5545 5547 5549 5550 5552 5553 5555 5556 5557 5559 5560 5561 5561 5562 5562 5564 5564 5565 5566 5567 5569 5569 5570 5569 5571 5573 5574 5574 5573 5574 5574 5575 5577
5527 5528 5528 5528 5529 5530 5531 5534 5535 5536 5539 5541 5543 5544 5545 5546 5548 5550 5551 5551 5552 5552 5553 5553 5554 5554 5554 5554 5554 5555 5556 5557 5557 5557 5558 5561 5562 5563 5562 5562 5562 5563 5565
Wind_Speed
73 66 62 63 68 72 75 73 71 65 61 59 49 42 38 37 36 35 32 33 31 28 27 25 23 23 18 17 17 15 16 15 15 18 21 22 19 19 26 26 25 26 34
78 75 68 64 65 69 72 75 74 67 64 63 55 46 37 39 39 40 36 36 34 32 30 27 25 27 24 20 20 17 17 17 16 18 19 20 22 20 21 24 23 28 32
86 85 77 70 64 67 65 72 74 68 62 64 59 52 47 46 43 43 40 37 35 35 33 31 27 30 27 24 21 20 20 18 18 19 19 18 20 25 25 25 23 25 31
77 75 83 72 67 65 64 59 69 75 72 67 62 57 49 47 42 38 37 39 41 40 35 33 31 31 30 27 25 23 23 21 20 19 23 21 20 22 27 27 27 26 28
55 65 73 75 65 65 64 61 59 75 81 69 66 59 54 47 45 43 41 39 45 44 39 36 35 31 31 28 28 28 26 24 23 22 24 22 21 21 22 28 31 29 26
32 40 49 73 65 65 64 60 60 65 76 73 68 64 53 50 50 46 44 44 47 48 44 38 36 34 31 30 29 31 29 28 26 26 24 24 23 20 24 25 32 34 28
20 23 34 66 63 61 58 60 60 61 63 70 71 68 59 56 53 52 48 46 51 53 46 40 37 35 32 32 31 31 31 32 31 29 28 24 25 23 23 28 27 34 32
10 11 31 54 54 48 48 55 57 56 57 66 66 70 73 59 54 48 49 48 54 51 48 42 39 38 36 33 34 33 31 34 32 32 30 26 26 27 26 25 26 29 36
5 16 28 36 44 47 48 49 51 53 55 63 66 61 58 54 51 50 51 54 52 49 47 45 43 41 37 35 34 34 32 33 33 32 32 31 29 29 29 28 29 30 34
12 20 30 39 40 41 45 47 54 59 52 54 58 65 60 61 56 54 51 49 50 51 48 46 43 41 38 37 36 36 33 33 33 34 33 33 33 32 31 31 30 32 33
11 17 23 29 29 33 33 43 49 57 54 53 53 52 54 53 53 50 48 47 49 53 51 45 41 42 39 39 38 37 35 34 35 35 34 34 34 33 32 35 34 34 36
14 19 25 26 26 25 26 34 42 43 53 52 54 44 51 53 53 51 44 41 49 52 48 44 41 41 41 40 39 39 36 37 36 35 35 37 35 35 36 36 37 38 37
16 10 8 17 18 24 27 28 30 41 44 54 53 37 36 46 41 34 35 31 39 49 45 44 42 44 42 42 40 40 39 39 38 37 36 38 36 36 38 38 39 41 37
7 8 12 20 18 17 24 26 26 35 24 24 24 30 32 34 31 27 27 32 35 40 41 42 42 39 40 39 38 40 40 41 40 38 38 39 38 38 39 40 41 41 40
10 13 8 14 26 30 29 30 28 31 31 33 35 37 40 38 31 31 30 32 33 36 37 38 39 37 38 36 39 39 40 42 42 39 39 40 40 40 40 41 42 41 42
8 3 16 9 15 18 22 24 20 28 29 29 32 37 38 36 35 37 42 38 36 36 38 41 39 38 37 35 38 40 41 43 41 40 40 40 41 40 40 41 40 42 45
11 10 6 17 25 17 17 15 15 19 24 25 26 27 34 38 35 34 34 35 36 38 40 41 41 45 36 39 41 40 41 42 41 40 41 41 41 40 39 41 39 41 46
9 11 5 7 16 20 23 20 20 18 23 27 25 21 23 25 28 29 32 34 35 36 39 42 37 25 37 39 40 38 42 41 41 40 42 41 41 38 36 39 38 37 35
19 7 13 9 1 6 23 28 27 26 23 26 27 22 23 27 29 30 31 31 32 33 34 38 37 36 37 36 37 40 40 39 40 40 41 40 40 34 35 38 36 33 31
14 14 14 14 13 3 9 16 22 20 18 19 22 28 28 27 28 30 30 30 30 30 32 35 37 41 32 34 37 39 37 38 39 38 38 36 38 36 34 35 32 32 29
9 9 13 17 14 5 4 11 18 21 21 21 21 22 25 27 27 26 26 26 25 25 26 28 30 32 33 33 33 35 34 37 36 37 38 38 38 31 30 32 33 31 28
14 12 10 11 10 8 8 3 13 18 28 24 20 19 19 19 21 24 26 26 25 25 26 26 27 27 28 29 34 37 39 36 35 36 36 35 37 35 32 29 36 36 30
19 15 14 13 12 12 13 12 10 12 18 22 21 20 20 20 20 20 21 22 22 23 25 27 30 30 30 29 30 32 35 40 37 36 35 38 36 37 34 35 34 41 34
19 18 20 17 16 15 16 16 19 21 19 18 18 20 20 22 22 22 24 25 25 26 27 28 28 28 29 33 34 34 33 39 41 41 43 41 36 37 37 37 37 40 43
14 16 20 15 14 15 16 17 17 19 22 22 23 23 23 23 26 27 27 28 30 32 33 34 34 35 35 35 37 38 41 46 49 50 46 41 42 40 35 37 38 37 43
12 17 19 18 17 17 16 17 16 16 20 20 20 21 22 23 25 29 31 32 31 31 32 34 35 36 36 36 39 42 45 47 49 51 50 48 41 38 41 40 35 37 44
Wind_Direction
262 251 244 237 235 236 242 242 242 244 243 247 239 233 238 243 238 241 241 247 251 250 252 258 263 260 256 261 262 264 272 274 282 288 278 269 265 251 243 239 255 227 236
257 252 243 234 231 233 234 237 239 239 239 245 242 233 235 234 235 239 242 243 249 251 250 253 256 261 257 255 257 255 263 270 274 284 289 284 270 262 246 239 237 242 244
256 247 242 233 229 230 233 233 236 235 233 240 239 228 234 230 230 236 239 246 249 249 250 250 249 253 254 256 256 257 260 263 271 277 287 289 276 261 254 248 245 246 247
268 252 235 232 227 228 230 231 232 233 235 234 235 229 225 232 231 240 239 241 251 250 247 248 250 254 257 257 259 258 260 264 267 275 280 290 291 270 259 255 253 254 247
272 257 233 222 222 223 229 229 230 231 236 233 232 238 222 230 235 232 237 236 244 245 246 246 250 250 255 257 260 263 262 265 269 272 277 286 290 279 263 253 251 255 255
283 255 232 213 212 217 223 226 229 231 230 234 240 238 228 228 234 230 233 236 242 244 244 243 248 248 252 253 257 261 265 268 268 269 273 280 286 284 268 260 259 254 256
299 255 222 204 205 214 221 229 235 234 231 226 235 237 235 222 232 245 238 233 237 241 242 243 244 249 249 249 252 258 260 264 267 267 271 273 281 284 278 265 260 257 254
329 227 201 198 205 216 228 233 238 231 230 224 231 236 241 231 226 233 231 231 232 237 240 244 245 247 247 247 252 256 259 261 265 268 270 273 277 280 279 277 270 258 254
316 185 184 196 207 219 225 231 226 223 227 224 229 237 238 218 230 227 228 231 232 236 241 244 244 246 247 250 252 257 258 261 267 270 269 272 272 276 276 275 270 267 262
240 199 194 201 216 223 231 232 222 215 216 217 220 221 232 224 224 221 228 229 230 233 238 240 242 246 249 251 252 257 258 260 268 271 270 271 271 273 276 277 277 272 271
270 232 220 222 219 225 230 225 218 208 199 205 210 212 215 221 220 219 222 226 230 231 236 240 242 245 248 250 252 255 256 259 265 270 270 271 270 272 276 274 274 278 270
264 256 245 222 213 217 218 223 223 195 203 213 213 215 214 220 224 222 226 224 228 229 236 236 237 244 247 249 251 254 256 257 262 267 270 272 270 271 275 273 276 279 271
254 265 242 208 201 219 222 228 203 195 200 213 216 222 221 222 228 230 227 231 228 230 235 240 238 238 244 248 250 253 255 257 260 265 268 271 271 270 277 275 274 277 268
324 321 276 180 207 212 215 211 212 207 210 205 206 230 231 234 243 242 238 236 236 237 241 243 246 237 244 248 250 252 255 257 261 265 268 271 269 269 273 275 274 278 271
321 204 297 197 192 180 204 219 217 226 231 235 239 244 246 253 252 244 245 243 242 246 248 252 250 247 241 247 248 251 252 256 261 267 269 271 268 271 274 272 274 277 275
23 263 249 226 204 194 195 191 206 213 221 230 235 238 239 240 240 242 237 238 241 246 248 251 250 249 246 246 249 250 252 257 264 265 268 270 268 275 276 274 278 278 274
49 37 268 205 211 189 212 214 208 219 221 228 228 231 237 236 233 231 234 236 239 241 245 250 253 250 245 249 249 252 255 259 261 264 266 268 267 275 275 277 281 286 280
50 65 55 222 208 198 200 210 220 228 230 231 225 236 240 234 233 236 237 241 241 244 245 246 263 259 245 248 253 256 257 259 261 263 265 266 268 277 276 281 283 288 288
310 72 38 63 324 226 203 216 225 231 237 235 227 228 240 239 240 240 241 241 240 244 243 246 254 253 248 252 255 255 257 259 261 262 263 263 267 276 278 281 286 289 289
301 297 333 359 14 49 253 213 210 222 224 230 230 231 232 237 238 237 238 240 241 244 246 248 245 251 262 256 253 256 258 261 262 265 266 267 270 268 287 272 284 284 292
245 265 280 295 312 299 359 229 234 223 212 226 232 231 234 237 237 237 237 237 239 243 247 249 252 254 257 256 256 260 264 261 262 262 262 263 266 272 290 264 270 277 275
219 213 230 263 274 242 220 229 223 229 222 235 234 235 234 237 242 247 249 250 247 250 252 255 258 260 266 266 255 261 264 262 264 265 265 264 264 268 281 282 259 268 269
224 217 235 220 240 235 230 222 227 225 235 241 240 239 238 238 241 242 246 247 249 253 256 258 260 261 261 264 263 262 262 261 263 259 264 264 260 264 274 275 282 262 265
224 217 237 226 220 225 235 234 231 232 239 238 245 246 240 241 249 246 247 252 252 255 258 260 262 266 268 265 258 258 255 257 263 263 263 267 266 277 271 273 277 279 254
236 230 231 220 217 222 226 236 240 238 239 247 251 252 251 255 257 258 257 259 261 263 264 265 266 263 263 262 261 261 257 253 253 259 262 264 261 276 267 276 275 274 257
255 231 225 234 236 232 231 231 230 233 237 234 240 249 255 261 263 262 261 262 265 268 271 272 274 275 276 273 265 260 260 261 263 263 257 260 265 270 273 275 269 268 260